Regional Weather Roundup
Issued by NWS Grand Forks, ND

Home | Current Version | Previous Version | Graphics & Text | Print | Product List | Glossary On
Versions: 1 2 3 4 5 6 7 8 9 10 11 12 13 14 15 16 17 18 19 20 21 22 23 24 25 26 27 28 29 30 31 32 33 34 35 36 37 38 39 40 41 42 43 44 45 46 47 48 49 50
000
ASUS43 KFGF 240331
RWRFGF
PRAIRIE TO PINES  WEATHER ROUNDUP
NATIONAL WEATHER SERVICE EASTERN NORTH DAKOTA/GRAND FORKS ND
1000 PM CDT TUE SEP 23 2014

 **SATELLITE DATA USED TO AUGMENT SKY COVER AT AUTOMATED STATIONS**
 *****  WEATHER ACROSS EASTERN NORTH DAKOTA  *****

CITY           SKY/WX    TMP DP  RH WIND       PRES   REMARKS
GRAND FORKS    MOCLDY    61  52  72 SE10      30.00F
GRAND FRKS AFB MOCLDY    61  54  78 S13       30.01S
GRAND FRKS NWS   N/A     59 N/A N/A S5          N/A
DEVILS LAKE    CLOUDY    61  50  67 S18       29.96S
FARGO          CLOUDY    61  54  77 S14G25    30.03S
WAHPETON ARPT  CLOUDY    57  54  88 SE14      30.04S
$$

 ***** WEATHER ACROSS CENTRAL AND WESTERN NORTH DAKOTA  *****

CITY           SKY/WX    TMP DP  RH WIND       PRES   REMARKS
BISMARCK       CLOUDY    60  58  92 SE13      29.94S
MINOT          CLEAR     60  55  83 SE9       29.88S
JAMESTOWN      CLOUDY    59  55  87 SE13      29.98S
MINOT AFB      CLEAR     60  59  96 SE10      29.87S
GARRISON         N/A     59  57  93 SE8       29.90S
WILLISTON      CLEAR     62  51  67 CALM      29.84R
DICKINSON      CLEAR     61  55  81 S9        29.89R
HETTINGER      CLEAR     62  57  83 SE6       29.94R
$$

 *****  OTHER AIRPORT OBSERVATIONS IN OUR AREA  *****

CITY           SKY/WX    TMP DP  RH WIND       PRES   REMARKS
WALHALLA         N/A     64  55  72 S12G18    29.96S
GRAFTON AIRPOR FAIR      61  52  72 S15       30.00R
VALLEY CITY AR CLOUDY    59  59 100 S9        30.00S
CANDO          CLOUDY    59  55  88 S18G24    29.96S
CAVALIER APRT  FAIR      63  54  72 S15G21    29.97S
GWINNER        CLOUDY    57  57 100 SE12      30.01F
ROLLA          CLOUDY    59  57  94 S13G24    29.95S
 ***** THE ABOVE OBSERVATIONS ARE NON NWS ARE NOT QUALITY
       CONTROLLED AND MAY MIS-REPORT RAIN FOR SNOW...
$$

  *****  WEATHER ACROSS NORTHERN MINNESOTA  *****

CITY           SKY/WX    TMP DP  RH WIND       PRES   REMARKS
FLAG ISLAND    PTCLDY    61  55  82 S10       30.03S
WARROAD        PTCLDY    61  54  77 S5        30.05S
ROSEAU         PTCLDY    63  50  63 S12       30.04S
HALLOCK        MOCLDY    63  52  67 S16       30.00S
THF RVR FALLS  PTCLDY    57  48  72 SE7       30.04F
BAUDETTE       PTCLDY    59  51  75 S7        30.06R
WASKISH        PTCLDY    57  54  88 CALM      30.09S
CROOKSTON      PTCLDY    57  52  82 SE8       30.03F
STEPHEN NDAWN    N/A     63  54  72 S12         N/A
GREENBUSH NDAW   N/A     61  50  67 S10         N/A
$$
  *****  WEATHER ACROSS CENTRAL AND WEST MINNESOTA  *****

CITY           SKY/WX    TMP DP  RH WIND       PRES   REMARKS
FOSSTON        MOCLDY    57  54  88 SE5       30.05F
BEMIDJI        CLOUDY    61  52  73 SE9       30.09S
PARK RAPIDS    CLOUDY    63  53  70 S10       30.09R
ELBOW LAKE     CLOUDY    57  55  94 SE17      30.06S
WADENA         CLOUDY    59  52  77 SE12      30.10F
DETROIT LAKES  MOCLDY    61  54  77 S22G28    30.08S
MOORHEAD       CLOUDY    61  57  88 S14G20    30.04F
FERGUS FALLS   CLOUDY    59  54  82 SE16G24   30.06F
MORRIS MN      CLOUDY    59  55  88 SE13      30.05F
STAPLES        CLOUDY    59  52  77 S8        30.12F
$$
  *****  WEATHER ELSEWHERE ACROSS MINNESOTA  *****

CITY           SKY/WX    TMP DP  RH WIND       PRES   REMARKS
DULUTH         PTCLDY    60  50  69 S7        30.18R
INTRNTL FALLS  PTCLDY    58  50  75 VRB5      30.10R
ELY            PTCLDY    55  48  76 S6        30.17S
CLOQUET        PTCLDY    59  50  72 SE3       30.18R
WHEATON        DRIZZLE   55  54  94 SE10      30.05F
BRAINERD       CLOUDY    62  52  69 SE8       30.13R
HIBBING        PTCLDY    54  50  86 SE6       30.16R
ALEXANDRIA     LGT RAIN  58  55  90 SE17G24   30.11F
SAINT CLOUD    CLOUDY    66  52  60 SW13      30.15R
MINNEAPOLIS    CLOUDY    65  51  60 SE8       30.17R
$$

  *****  WEATHER ACROSS SOUTH DAKOTA  *****

CITY           SKY/WX    TMP DP  RH WIND       PRES   REMARKS
SIOUX FALLS    CLOUDY    62  53  72 S20G28    30.05R
BROOKINGS      NOT AVBL
WATERTOWN      CLOUDY    58  55  90 S14       30.01S
HURON          MOCLDY    60  57  89 SE13G20   29.96F
SISSETON         N/A     57  57 100 S10       30.01F
ABERDEEN       CLOUDY    59  57  93 SE8       29.98S FOG
MITCHELL       MOCLDY    61  58  90 SE10      29.99S
PIERRE         PTCLDY    61  57  87 SE9       29.92S
MOBRIDGE       CLOUDY    60  57  89 SE13      29.92S
RAPID CITY     CLEAR     59  52  77 CALM      29.97R
$$

  *****  SOME WEATHER IN NEARBY STATES *****

CITY           SKY/WX    TMP DP  RH WIND       PRES   REMARKS
GLASGOW MT     CLEAR     66  50  56 NW6       29.89R
GREAT FALLS MT PTCLDY    63  45  51 S9        29.97S
CHEYENNE WY    CLEAR     59  40  49 W9        30.21R
SCOTTSBLUFF NE CLEAR     62  50  64 E3        30.06R
OMAHA NE       CLOUDY    64  54  69 SE18      30.10F
DES MOINES IA  CLOUDY    63  53  70 S8        30.18R
DAVENPORT IA   CLOUDY    59  47  64 SE3       30.25S
CHICAGO IL     MOCLDY    61  49  64 S6        30.30R
EAU CLAIRE WI  MOCLDY    61  51  70 S6        30.21R
LA CROSSE WI   CLOUDY    61  50  67 E6        30.22R
$$

  *****  SOME NATIONAL WEATHER *****

CITY           SKY/WX    TMP DP  RH WIND       PRES   REMARKS
LA GUARDIA NY  CLEAR     63  52  67 S5        30.40R
RALEIGH NC     LGT RAIN  56  52  86 CALM      30.33R
ATLANTA GA     PTCLDY    63  55  75 E15       30.25R
NEW ORLEANS LA CLEAR     75  58  55 E5        30.07R
OKLAHOMA CITY  PTCLDY    69  51  52 SE7       30.12R
ALBUQUERQUE NM PTCLDY    74  55  51 S8        30.18R
SALT LAKE CITY PTCLDY    72  51  47 S7        30.10R
LOS ANGELES CA PTCLDY    67  63  87 W10       29.89S
BOISE ID       CLOUDY    75  52  44 SE5       29.91S
SEATTLE WA     RAIN      62  59  90 SE9       29.79F FOG
$$

*** WEATHER ACROSS MANITOBA...SASKATCHEWAN AND ONTARIO ***
                ***ONTARIO***

CITY           SKY/WX    TMP DP  RH WIND       PRES   REMARKS
GERALDTON      CLEAR     55  50  82 SW8       30.17S
THUNDER BAY    CLEAR     52  50  93 VRB3      30.20R
SIOUX LOOKOUT  CLEAR     52  50  93 S5        30.07R
TORONTO        CLEAR     63  52  67 NW3       30.37R
BIG TROUT LK   CLEAR     63  48  59 SW13G20   29.83S
PICKLE LAKE    NOT AVBL
DRYDEN         CLEAR     61  50  67 S9        30.08R
KENORA         PTCLDY    64  52  63 S10G18    30.05R
$$
                *** MANITOBA***

CITY           SKY/WX    TMP DP  RH WIND       PRES   REMARKS
BRANDON        CLEAR     64  57  77 S14G20    29.88R
DAUPHIN        CLEAR     68  59  73 SW9       29.79S
ISLAND LAKE    PTCLDY    70  57  64 S6        29.77R
PILOT MOUND      N/A     63  54  72 S21G26      N/A
THE PAS        CLEAR     63  54  72 N3        29.70R
THOMPSON       PTCLDY    54  54 100 CALM      29.68R
WINNIPEG       CLEAR     66  50  55 S17G26    29.94R
LYNN LAKE      CLEAR     57  48  72 NW7       29.75R
CHURCHILL      PTCLDY    55  50  82 W10       29.57R
GILLAM         CLEAR     64  55  72 SW8       29.64
$$
                ***SASKATCHEWAN***

CITY           SKY/WX    TMP DP  RH WIND       PRES   REMARKS
ESTEVAN        PTCLDY    64  57  77 SE7       29.83R
KINDERSLEY     CLOUDY    61  52  72 CALM      29.88R
LLOYDMINSTER   MOCLDY    61  46  59 W6        29.86R
PRINCE ALBERT  CLOUDY    66  52  59 NW9       29.78R
REGINA         CLEAR     63  54  72 W2        29.81R
YORKTON        MOCLDY    64  57  77 S9        29.78R
N. BATTLEFORD  CLOUDY    63  52  67 NW2       29.85R
LA RONGE       CLOUDY    63  52  67 N7        29.80
SASKATOON      CLOUDY    64  50  59 VRB2      29.83R
SWIFT CURRENT  CLEAR     61  48  63 W10       29.89R
$$
NOTE: THESE ARE AUTOMATED STATIONS WITH LIMITED QUALITY CONTROL
      "FAIR" INDICATES FEW OR NO CLOUDS BELOW 12,000 FEET WITH NO
      SIGNIFICANT WEATHER AND/OR OBSTRUCTIONS TO VISIBILITY.
      SKY/WX - SKY CONDITION AND SIGNIFICANT WEATHER.
      TMP - AIR TEMPERATURE.    DP   - DEWPOINT TEMPERATURE.
      RH  - RELATIVE HUMIDITY.  PRES - PRESSURE.
      HX  - HEAT INDEX.         WCI  - WIND CHILL INDEX.
$


USA.gov is the U.S. government's official web portal to all federal, state and local government web resources and services.